Weather in Pronsk

Russia / Ryazan Oblast     54°07′06″N   39°36′25″E
temp.,
°C
wind,
m/s
gust,
m/s
humid.,
%
clouds,
%
prec.,
mm/h
press.,
hPa
HPBL,
m
1 march, mon
mon100:00−4ne2296100 0.1 102050
03:00−6nne2296100 0.1 102261
06:00−11n229469 0.0 102421
09:00−10nnw129534 0.0 102628
12:00−5w23929 0.0 1026242
15:00−3wsw489342 0.0 1024390
18:00−2w6109298 0.0 1023623
21:00−2wsw6129299 0.1 1021391
2 march, tue
tue200:000w61293100 0.0 1018509
03:00+1wsw61392100 0.0 1016572
06:00+1w61394100 0.0 1012621
09:00+1w71397100 0.1 1011560
12:00+1wnw613100100 0.1 1009603
15:00+1wnw51195100 0.3 1009703
18:000nw4109299 0.1 1009407
21:00−1nw5128899 0.3 1010548
3 march, wed
wed300:00−2nw61293100 0.1 1010478
03:00−3nw71491100 0.3 1012680
06:00−5nw7149099 0.1 1012707
09:00−5nw8138999 0.1 1015771
12:00−4nnw7138268 0.0 1016825
15:00−1nw6108767 0.1 10161022
18:00−2wnw51190100 0.1 1015684
21:00−2wnw51192100 0.1 1016616
4 march, thu
thu400:00−2w61292100 0.1 1015505
03:00−3w6129396 0.1 1013412
06:00−3wsw61488100 0.0 1010465
09:00−2wsw8178998 0.0 1007484
12:00+1wsw91784100 0.0 1004895
15:00+1wsw91680100 0.0 1002988
18:00+1wsw81586100 0.0 1000942
21:00+1w81496100 0.1 1000878
5 march, fri
fri500:00−1nw51190100 0.4 1002567
03:00−6nw489296 0.4 1005162
06:00−8nw349582 0.0 100886
09:00−7nw239559 0.0 1010115
12:00−4nw228944 0.0 1011305
15:00−3nw118671 0.0 1012400
18:00−6nne0192100 0.0 101321
21:00−6ese1293100 0.0 101421